Weather History for Chickasha, OK

Change the Weather History Date:

Wednesday, April 30, 2014

  Actual Average Record
Temperature  
Mean Temperature 52 °F -  
Max Temperature 62 °F 77 °F 91 °F (1959)
Min Temperature 41 °F 54 °F 36 °F (1984)
Degree Days  
Heating Degree Days 14    
Growing Degree Days 2 (Base 50)    
Moisture  
Dew Point 34 °F    
Average Humidity 53    
Maximum Humidity 81    
Minimum Humidity 32    
Precipitation  
Precipitation 0.00 in - - ()
Sea Level Pressure  
Sea Level Pressure 30.11 in    
Wind  
Wind Speed 14 mph (NNW)    
Max Wind Speed 22 mph    
Max Gust Speed 30 mph    
Visibility 10 miles    
Events      
Averages and records for this station are not official NWS values.
T = Trace of Precipitation, MM = Missing Value Source: NWS Daily Summary

Daily Weather History Graph

Daily Weather History Graph

Search for Another Location

Airport:

Trip Planner

Search our weather history database for the weather conditions in past years. The results will help you decide how hot, cold, wet, or windy it might be!

Date:

Astronomy

Apr. 30, 2014 Rise Set
Actual Time 6:41 AM CDT 8:16 PM CDT
Civil Twilight 6:14 AM CDT 8:43 PM CDT
Nautical Twilight 5:42 AM CDT 9:16 PM CDT
Astronomical Twilight 5:08 AM CDT 9:50 PM CDT
Moon 7:45 AM CDT (4/30) 9:55 PM CDT (4/30)
Length of Visible Light 14h 28m
Length of Day
13h 34m
New Moon, 2% of the Moon is Illuminated
Apr 30
New Moon
May 6
First Quarter
May 14
Full
May 21
Last Quarter
May 28
New

Hourly Weather History & Observations

Time (CDT) Temp. Windchill Dew Point Humidity Pressure Visibility Wind Dir Wind Speed Gust Speed Precip Events Conditions
12:15 AM 51.8 °F - 35.6 °F 54% 30.00 in 10.0 mi North 16.1 mph 20.7 mph N/A   Overcast
12:35 AM 51.8 °F - 35.6 °F 54% 30.01 in 10.0 mi NNW 15.0 mph 20.7 mph N/A   Overcast
12:55 AM 50.0 °F - 35.6 °F 58% 30.01 in 10.0 mi NNW 9.2 mph - N/A   Overcast
1:15 AM 50.0 °F - 35.6 °F 58% 30.02 in 10.0 mi NNW 16.1 mph 21.9 mph N/A   Overcast
1:35 AM 50.0 °F - 35.6 °F 58% 30.02 in 10.0 mi NNW 13.8 mph 25.3 mph N/A   Overcast
1:55 AM 48.2 °F - 35.6 °F 62% 30.03 in 10.0 mi North 21.9 mph 27.6 mph N/A   Overcast
2:15 AM 48.2 °F - 35.6 °F 62% 30.04 in 10.0 mi North 12.7 mph - N/A   Overcast
2:35 AM 46.4 °F 41.5 °F 35.6 °F 66% 30.05 in 10.0 mi NNW 10.4 mph - N/A   Mostly Cloudy
2:55 AM 46.4 °F 40.7 °F 35.6 °F 66% 30.06 in 10.0 mi NNW 12.7 mph - N/A   Mostly Cloudy
3:15 AM 46.4 °F 41.1 °F 35.6 °F 66% 30.06 in 10.0 mi NNW 11.5 mph - N/A   Mostly Cloudy
3:35 AM 42.8 °F 37.5 °F 35.6 °F 76% 30.07 in 10.0 mi NNW 9.2 mph - N/A   Scattered Clouds
3:55 AM 44.6 °F 38.1 °F 35.6 °F 71% 30.08 in 10.0 mi NNW 13.8 mph 19.6 mph N/A   Mostly Cloudy
4:15 AM 42.8 °F 35.8 °F 35.6 °F 76% 30.08 in 10.0 mi NNW 13.8 mph 21.9 mph N/A   Mostly Cloudy
4:35 AM 42.8 °F 37.0 °F 35.6 °F 76% 30.09 in 10.0 mi NNW 10.4 mph - N/A   Scattered Clouds
4:55 AM 42.8 °F 38.0 °F 35.6 °F 76% 30.10 in 10.0 mi NW 8.1 mph - N/A   Mostly Cloudy
5:15 AM 42.8 °F 38.0 °F 35.6 °F 76% 30.09 in 10.0 mi NW 8.1 mph - N/A   Overcast
5:35 AM 46.4 °F 41.1 °F 37.4 °F 71% 30.09 in 10.0 mi NW 11.5 mph 17.3 mph N/A   Overcast
5:55 AM 46.4 °F 41.1 °F 37.4 °F 71% 30.10 in 10.0 mi NW 11.5 mph - N/A   Overcast
6:15 AM 44.6 °F 38.8 °F 35.6 °F 71% 30.11 in 10.0 mi NW 11.5 mph - N/A   Mostly Cloudy
6:35 AM 42.8 °F 37.0 °F 35.6 °F 76% 30.12 in 10.0 mi NW 10.4 mph - N/A   Clear
6:55 AM 42.8 °F 36.6 °F 35.6 °F 76% 30.13 in 10.0 mi NW 11.5 mph - N/A   Scattered Clouds
7:15 AM 42.8 °F 38.0 °F 35.6 °F 76% 30.14 in 10.0 mi NW 8.1 mph - N/A   Clear
7:35 AM 42.8 °F 37.0 °F 35.6 °F 76% 30.14 in 10.0 mi NW 10.4 mph - N/A   Clear
7:55 AM 46.4 °F 40.7 °F 37.4 °F 71% 30.15 in 10.0 mi NNW 12.7 mph - N/A   Clear
8:15 AM 46.4 °F 39.8 °F 35.6 °F 66% 30.15 in 10.0 mi NNW 16.1 mph 19.6 mph N/A   Clear
8:35 AM 48.2 °F - 37.4 °F 66% 30.16 in 10.0 mi NNW 17.3 mph 21.9 mph N/A   Clear
8:55 AM 48.2 °F - 35.6 °F 62% 30.16 in 10.0 mi NNW 19.6 mph 23.0 mph N/A   Clear
9:15 AM 50.0 °F - 35.6 °F 58% 30.16 in 10.0 mi NNW 18.4 mph 23.0 mph N/A   Clear
9:35 AM 51.8 °F - 35.6 °F 54% 30.16 in 10.0 mi NNW 18.4 mph 23.0 mph N/A   Clear
9:55 AM 53.6 °F - 37.4 °F 54% 30.17 in 10.0 mi NW 18.4 mph 21.9 mph N/A   Clear
10:15 AM 53.6 °F - 35.6 °F 51% 30.17 in 10.0 mi NNW 17.3 mph - N/A   Clear
10:35 AM 53.6 °F - 33.8 °F 47% 30.17 in 10.0 mi North 19.6 mph 23.0 mph N/A   Clear
10:55 AM 55.4 °F - 32.0 °F 41% 30.17 in 10.0 mi NNW 21.9 mph 28.8 mph N/A   Scattered Clouds
11:15 AM 55.4 °F - 32.0 °F 41% 30.17 in 10.0 mi NNW 21.9 mph 26.5 mph N/A   Scattered Clouds
11:35 AM 55.4 °F - 32.0 °F 41% 30.16 in 10.0 mi North 19.6 mph 29.9 mph N/A   Clear
11:55 AM 55.4 °F - 30.2 °F 38% 30.17 in 10.0 mi NNW 19.6 mph 27.6 mph N/A   Clear
12:15 PM 59.0 °F - 32.0 °F 36% 30.17 in 10.0 mi NW 20.7 mph 25.3 mph N/A   Clear
12:35 PM 59.0 °F - 32.0 °F 36% 30.16 in 10.0 mi NNW 17.3 mph 25.3 mph N/A   Scattered Clouds
12:55 PM 59.0 °F - 32.0 °F 36% 30.16 in 10.0 mi NNW 21.9 mph 25.3 mph N/A   Scattered Clouds
1:15 PM 59.0 °F - 33.8 °F 39% 30.15 in 10.0 mi NW 15.0 mph 24.2 mph N/A   Mostly Cloudy
1:35 PM 59.0 °F - 32.0 °F 36% 30.14 in 10.0 mi North 17.3 mph 25.3 mph N/A   Scattered Clouds
1:55 PM 59.0 °F - 32.0 °F 36% 30.13 in 10.0 mi North 20.7 mph 27.6 mph N/A   Scattered Clouds
2:15 PM 60.8 °F - 32.0 °F 34% 30.14 in 10.0 mi NNW 18.4 mph 25.3 mph N/A   Scattered Clouds
2:35 PM 60.8 °F - 32.0 °F 34% 30.13 in 10.0 mi NNW 17.3 mph 24.2 mph N/A   Scattered Clouds
2:55 PM 60.8 °F - 32.0 °F 34% 30.13 in 10.0 mi NNW 18.4 mph 26.5 mph N/A   Scattered Clouds
3:15 PM 60.8 °F - 33.8 °F 36% 30.12 in 10.0 mi NNW 16.1 mph 23.0 mph N/A   Scattered Clouds
3:35 PM 60.8 °F - 32.0 °F 34% 30.12 in 10.0 mi North 16.1 mph 23.0 mph N/A   Scattered Clouds
3:55 PM 60.8 °F - 32.0 °F 34% 30.11 in 10.0 mi NW 8.1 mph 21.9 mph N/A   Clear
4:15 PM 60.8 °F - 32.0 °F 34% 30.10 in 10.0 mi North 13.8 mph 21.9 mph N/A   Scattered Clouds
4:35 PM 62.6 °F - 33.8 °F 34% 30.09 in 10.0 mi North 12.7 mph 19.6 mph N/A   Scattered Clouds
4:55 PM 62.6 °F - 32.0 °F 32% 30.09 in 10.0 mi NNW 6.9 mph - N/A   Scattered Clouds
5:15 PM 62.6 °F - 32.0 °F 32% 30.08 in 10.0 mi North 15.0 mph 19.6 mph N/A   Clear
5:35 PM 62.6 °F - 32.0 °F 32% 30.08 in 10.0 mi NW 13.8 mph 18.4 mph N/A   Clear
5:55 PM 62.6 °F - 32.0 °F 32% 30.08 in 10.0 mi NNW 17.3 mph 24.2 mph N/A   Clear
6:15 PM 60.8 °F - 32.0 °F 34% 30.08 in 10.0 mi NNW 11.5 mph - N/A   Clear
6:35 PM 60.8 °F - 32.0 °F 34% 30.08 in 10.0 mi North 12.7 mph 23.0 mph N/A   Clear
6:55 PM 60.8 °F - 32.0 °F 34% 30.08 in 10.0 mi NNW 8.1 mph - N/A   Clear
7:15 PM 59.0 °F - 32.0 °F 36% 30.08 in 10.0 mi NNW 8.1 mph - N/A   Clear
7:35 PM 59.0 °F - 32.0 °F 36% 30.08 in 10.0 mi North 10.4 mph - N/A   Clear
7:55 PM 55.4 °F - 32.0 °F 41% 30.09 in 10.0 mi North 9.2 mph - N/A   Clear
8:15 PM 53.6 °F - 32.0 °F 44% 30.09 in 10.0 mi North 8.1 mph - N/A   Scattered Clouds
8:35 PM 48.2 °F - 32.0 °F 54% 30.10 in 10.0 mi NNE 8.1 mph - N/A   Clear
8:55 PM 48.2 °F - 33.8 °F 58% 30.11 in 10.0 mi NNE 8.1 mph - N/A   Clear
9:15 PM 48.2 °F - 32.0 °F 54% 30.12 in 10.0 mi North 5.8 mph - N/A   Clear
9:35 PM 46.4 °F 42.9 °F 32.0 °F 57% 30.13 in 10.0 mi North 6.9 mph - N/A   Clear
9:55 PM 42.8 °F 38.0 °F 32.0 °F 66% 30.14 in 10.0 mi North 8.1 mph - N/A   Clear
10:15 PM 44.6 °F 41.4 °F 32.0 °F 61% 30.14 in 10.0 mi North 5.8 mph - N/A   Clear
10:35 PM 46.4 °F - 32.0 °F 57% 30.15 in 10.0 mi Calm Calm - N/A   Clear
10:55 PM 42.8 °F 41.1 °F 32.0 °F 66% 30.15 in 10.0 mi West 3.5 mph - N/A   Clear
11:15 PM 42.8 °F 41.1 °F 33.8 °F 70% 30.15 in 10.0 mi West 3.5 mph - N/A   Clear
11:35 PM 41.0 °F 39.0 °F 33.8 °F 76% 30.15 in 10.0 mi West 3.5 mph - N/A   Clear
11:55 PM 41.0 °F 39.0 °F 35.6 °F 81% 30.15 in 10.0 mi West 3.5 mph - N/A   Clear